Location: Boiro
(42.6475°N, 8.8834°W)
Time: 07:44:06
(UTC+01:00)

Transit 4A - Pass Details

Date: 25 September 2023
Orbit: 864 x 979 km, 66.8° (Epoch: 02 December)

Event Time Altitude Azimuth Distance (km) Brightness Sun altitude
Rises 22:23:19 0° 334° (NNW) 3,682 11.7 -21.6°
Reaches altitude 10° 22:26:14 10° 344° (NNW) 2,724 10.8 -22.1°
Maximum altitude 22:31:50 31° 46° (NE) 1,615 8.9 -23.1°
Enters shadow 22:32:32 30° 58° (ENE) 1,634 8.9 -23.2°
